Location: Unspecified
(49.2170°N, 0.0000°E)
Time: 16:57:56
(UTC+00:00)

Envisat - Pass Details

Date: 27 November 2020
Orbit: 764 x 766 km, 98.1° (Epoch: 20 January)

Event Time Altitude Azimuth Distance (km) Brightness Sun altitude
Rises 04:27:01 0° 30° (NNE) 3,246 6.6 -28.9°
Reaches altitude 10° 04:30:41 10° 58° (ENE) 2,312 6.2 -28.3°
Maximum altitude 04:33:04 13° 86° (E) 2,088 6.1 -27.9°
Drops below altitude 10° 04:35:26 10° 114° (ESE) 2,303 6.3 -27.6°
Sets 04:39:03 0° 141° (SE) 3,222 6.8 -27.0°
